When you browse on this site, cookies collect data to enhance your experience and personalize the content and advertising you see.
Visit our Privacy Policy to learn more. By continuing to use the site, you agree to this use of cookies and data.
EN

Hourly Weather Klugajny

Today, 27 September, Sunday

Time Temperature Precipitation Wind Pressure Humidity
00:00 +18°C° 0 mm 4 mps 741 mmHg 85%
01:00 +17°C° 0 mm 5 mps 741 mmHg 82%
02:00 +17°C° 0.1 mm 5 mps 741 mmHg 80%
03:00 +17°C° 0.1 mm 6 mps 740 mmHg 79%
04:00 +16°C° 0.1 mm 6 mps 740 mmHg 77%
05:00 +17°C° 0 mm 6 mps 740 mmHg 76%
06:00 +17°C° 0 mm 7 mps 740 mmHg 75%
07:00 +17°C° 0 mm 7 mps 740 mmHg 74%
08:00 +18°C° 0.1 mm 7 mps 741 mmHg 72%
09:00 +18°C° 0.1 mm 8 mps 741 mmHg 70%
10:00 +20°C° 0.1 mm 8 mps 741 mmHg 68%
11:00 +18°C° 0.1 mm 8 mps 742 mmHg 69%
12:00 +18°C° 0.1 mm 7 mps 742 mmHg 70%
13:00 +17°C° 0.1 mm 7 mps 743 mmHg 70%
14:00 +16°C° 0.1 mm 6 mps 744 mmHg 75%
15:00 +14°C° 0.1 mm 6 mps 744 mmHg 79%
16:00 +13°C° 0.1 mm 5 mps 745 mmHg 83%
17:00 +12°C° 0 mm 5 mps 746 mmHg 83%
18:00 +10°C° 0 mm 5 mps 747 mmHg 82%
19:00 +11°C° 0 mm 4 mps 747 mmHg 81%
20:00 +10°C° 0 mm 4 mps 748 mmHg 83%
21:00 +10°C° 0 mm 4 mps 749 mmHg 84%
22:00 +9°C° 0 mm 3 mps 749 mmHg 86%
23:00 +9°C° 0 mm 3 mps 750 mmHg 88%

Tomorrow, 28 September, Monday

Time Temperature Precipitation Wind Pressure Humidity
00:00 +9°C° 0 mm 3 mps 750 mmHg 90%
01:00 +9°C° 0 mm 3 mps 751 mmHg 92%
02:00 +8°C° 0 mm 2 mps 751 mmHg 92%
03:00 +8°C° 0 mm 2 mps 751 mmHg 93%
04:00 +8°C° 0 mm 2 mps 751 mmHg 93%
05:00 +8°C° 0 mm 2 mps 752 mmHg 90%
06:00 +9°C° 0 mm 2 mps 752 mmHg 87%
07:00 +9°C° 0 mm 2 mps 752 mmHg 84%
08:00 +12°C° 0 mm 2 mps 753 mmHg 77%
09:00 +14°C° 0 mm 2 mps 753 mmHg 69%
10:00 +16°C° 0 mm 2 mps 753 mmHg 61%
11:00 +17°C° 0 mm 2 mps 753 mmHg 57%
12:00 +18°C° 0 mm 2 mps 753 mmHg 53%
13:00 +18°C° 0 mm 2 mps 753 mmHg 50%
14:00 +19°C° 0 mm 1 mps 753 mmHg 52%
15:00 +19°C° 0 mm 1 mps 753 mmHg 55%
16:00 +17°C° 0 mm 0 mps 753 mmHg 57%
17:00 +16°C° 0 mm 1 mps 753 mmHg 62%
18:00 +14°C° 0 mm 1 mps 753 mmHg 67%
19:00 +12°C° 0 mm 1 mps 753 mmHg 71%
20:00 +12°C° 0 mm 1 mps 753 mmHg 74%
21:00 +11°C° 0 mm 1 mps 753 mmHg 76%
22:00 +11°C° 0 mm 1 mps 753 mmHg 78%
23:00 +11°C° 0 mm 1 mps 753 mmHg 78%

Day after tomorrow, 29 September, Tuesday

Time Temperature Precipitation Wind Pressure Humidity
00:00 +10°C° 0 mm 1 mps 753 mmHg 79%
01:00 +10°C° 0 mm 1 mps 753 mmHg 80%
02:00 +10°C° 0 mm 1 mps 753 mmHg 80%
03:00 +9°C° 0 mm 2 mps 753 mmHg 80%
04:00 +9°C° 0 mm 2 mps 753 mmHg 80%
05:00 +9°C° 0 mm 2 mps 753 mmHg 79%
06:00 +10°C° 0 mm 2 mps 753 mmHg 78%
07:00 +10°C° 0 mm 2 mps 753 mmHg 76%
08:00 +13°C° 0 mm 2 mps 753 mmHg 71%
09:00 +15°C° 0 mm 2 mps 753 mmHg 65%
10:00 +17°C° 0 mm 3 mps 753 mmHg 59%
11:00 +17°C° 0 mm 3 mps 753 mmHg 57%
12:00 +18°C° 0 mm 3 mps 753 mmHg 56%
13:00 +19°C° 0 mm 3 mps 753 mmHg 54%
14:00 +18°C° 0 mm 3 mps 753 mmHg 58%
15:00 +18°C° 0 mm 3 mps 753 mmHg 62%
16:00 +17°C° 0 mm 2 mps 753 mmHg 65%
17:00 +16°C° 0 mm 3 mps 753 mmHg 70%
18:00 +13°C° 0 mm 3 mps 753 mmHg 75%
19:00 +12°C° 0 mm 3 mps 753 mmHg 80%
20:00 +11°C° 0 mm 3 mps 753 mmHg 82%
21:00 +11°C° 0 mm 3 mps 753 mmHg 85%
22:00 +10°C° 0 mm 2 mps 753 mmHg 87%
23:00 +10°C° 0 mm 2 mps 753 mmHg 89%

30 September, Wednesday

Time Temperature Precipitation Wind Pressure Humidity
00:00 +10°C° 0 mm 2 mps 753 mmHg 91%
01:00 +10°C° 0 mm 2 mps 753 mmHg 92%
02:00 +10°C° 0 mm 2 mps 753 mmHg 93%
03:00 +9°C° 0 mm 2 mps 753 mmHg 93%
04:00 +9°C° 0 mm 2 mps 753 mmHg 94%
05:00 +10°C° 0 mm 2 mps 753 mmHg 92%
06:00 +10°C° 0 mm 2 mps 753 mmHg 91%
07:00 +10°C° 0 mm 2 mps 753 mmHg 90%
08:00 +12°C° 0 mm 3 mps 753 mmHg 83%
09:00 +14°C° 0 mm 3 mps 753 mmHg 77%
10:00 +17°C° 0 mm 3 mps 752 mmHg 70%
11:00 +18°C° 0 mm 3 mps 752 mmHg 67%
12:00 +18°C° 0 mm 3 mps 752 mmHg 65%
13:00 +19°C° 0 mm 3 mps 752 mmHg 62%
14:00 +19°C° 0 mm 4 mps 751 mmHg 65%
15:00 +18°C° 0 mm 4 mps 751 mmHg 69%
16:00 +18°C° 0 mm 4 mps 751 mmHg 72%
17:00 +15°C° 0 mm 4 mps 751 mmHg 78%
18:00 +14°C° 0 mm 3 mps 751 mmHg 84%
19:00 +12°C° 0 mm 3 mps 751 mmHg 91%
20:00 +12°C° 0 mm 3 mps 751 mmHg 92%
21:00 +13°C° 0 mm 2 mps 751 mmHg 93%
22:00 +12°C° 0 mm 2 mps 751 mmHg 95%
23:00 +12°C° 0 mm 2 mps 750 mmHg 94%

1 October, Thursday

Time Temperature Precipitation Wind Pressure Humidity
00:00 +12°C° 0 mm 2 mps 750 mmHg 93%
01:00 +13°C° 0 mm 2 mps 750 mmHg 92%
02:00 +12°C° 0 mm 2 mps 750 mmHg 93%
03:00 +12°C° 0 mm 2 mps 749 mmHg 93%
04:00 +10°C° 0 mm 2 mps 749 mmHg 93%
05:00 +10°C° 0 mm 3 mps 749 mmHg 90%
06:00 +10°C° 0 mm 3 mps 749 mmHg 86%
07:00 +11°C° 0 mm 3 mps 749 mmHg 82%
08:00 +12°C° 0 mm 3 mps 748 mmHg 75%
09:00 +13°C° 0 mm 3 mps 748 mmHg 68%
10:00 +14°C° 0 mm 3 mps 748 mmHg 61%
11:00 +16°C° 0 mm 3 mps 747 mmHg 56%
12:00 +18°C° 0 mm 4 mps 747 mmHg 52%
13:00 +19°C° 0 mm 5 mps 747 mmHg 47%
14:00 +17°C° 0 mm 5 mps 747 mmHg 51%
15:00 +15°C° 0 mm 4 mps 746 mmHg 54%
16:00 +14°C° 0 mm 4 mps 746 mmHg 58%
17:00 +14°C° 0 mm 4 mps 746 mmHg 61%
18:00 +13°C° 0 mm 4 mps 746 mmHg 64%
19:00 +12°C° 0 mm 4 mps 746 mmHg 68%
20:00 +12°C° 0 mm 4 mps 746 mmHg 73%
21:00 +12°C° 0 mm 3 mps 746 mmHg 79%
22:00 +12°C° 0 mm 3 mps 746 mmHg 84%
23:00 +11°C° 0 mm 3 mps 745 mmHg 87%

2 October, Friday

Time Temperature Precipitation Wind Pressure Humidity
00:00 +11°C° 0 mm 3 mps 745 mmHg 90%
01:00 +11°C° 0 mm 3 mps 745 mmHg 93%
02:00 +10°C° 0 mm 3 mps 745 mmHg 93%
03:00 +10°C° 0 mm 3 mps 745 mmHg 94%
04:00 +10°C° 0 mm 4 mps 745 mmHg 95%
05:00 +10°C° 0 mm 4 mps 745 mmHg 93%
06:00 +11°C° 0 mm 4 mps 745 mmHg 91%
07:00 +10°C° 0 mm 5 mps 745 mmHg 89%
08:00 +12°C° 0 mm 5 mps 745 mmHg 82%
09:00 +14°C° 0 mm 5 mps 745 mmHg 75%
10:00 +16°C° 0 mm 5 mps 745 mmHg 69%
11:00 +16°C° 0 mm 5 mps 745 mmHg 66%
12:00 +17°C° 0 mm 5 mps 745 mmHg 63%
13:00 +19°C° 0 mm 5 mps 745 mmHg 61%
14:00 +19°C° 0 mm 4 mps 745 mmHg 63%
15:00 +18°C° 0 mm 4 mps 745 mmHg 65%
16:00 +18°C° 0 mm 3 mps 745 mmHg 68%
17:00 +15°C° 0 mm 4 mps 745 mmHg 73%
18:00 +14°C° 0 mm 4 mps 745 mmHg 77%
19:00 +13°C° 0 mm 5 mps 745 mmHg 82%
20:00 +13°C° 0 mm 5 mps 745 mmHg 82%
21:00 +13°C° 0 mm 4 mps 745 mmHg 82%
22:00 +13°C° 0 mm 4 mps 745 mmHg 82%
23:00 +12°C° 0 mm 4 mps 745 mmHg 85%
Show more